Location: Arroyo de Fuente Vieja
(40.4902°N, 4.1175°W)
Time: 12:55:15
(UTC+00:00)

USA 229 DEB - Pass Details

Date: 18 April 2024
Orbit: 892 x 1319 km, 63.4° (Epoch: 18 May)

Event Time Altitude Azimuth Distance (km) Brightness Sun altitude
Rises 21:39:37 0° 229° (SW) 3,528 6.5 -26.9°
Reaches altitude 10° 21:42:08 10° 235° (SW) 2,620 5.8 -27.3°
Maximum altitude 21:48:03 52° 311° (NW) 1,201 4.2 -28.0°
Drops below altitude 10° 21:54:34 10° 27° (NNE) 2,870 6.2 -28.8°
Sets 21:57:26 0° 32° (NNE) 3,895 6.9 -29.2°
